Weather in Freeport

Bahamas     26°31′54″N   78°37′49″W
temp.,
°C
wind,
m/s
gust,
m/s
humid.,
%
clouds,
%
prec.,
mm/h
press.,
hPa
HPBL,
m
23 october, sat
sat2323:00+28ese7773100 0.0 10161025
02:00+27ese6676100 0.1 1014823
05:00+26ene4581100 4.4 1013255
08:00+27e347495 9.9 1014324
11:00+27se447652 3.6 1016436
14:00+28ese4471100 3.6 1014705
17:00+28ene447196 1.1 1013701
20:00+27ne5675100 2.3 1014724
24 october, sun
sun2423:00+27ene6676100 0.0 1015646
02:00+27e667793 0.0 1014768
05:00+27e6676100 0.1 1014822
08:00+27e6676100 0.1 1015776
11:00+27ese6676100 0.2 1017827
14:00+28se5576100 1.0 1015760
17:00+28s5577100 2.1 1015783
20:00+27s4477100 4.3 1016554
25 october, mon
mon2523:00+28sse6775100 0.0 1017778
02:00+28ssw6775100 0.3 1016882
05:00+28ssw6675100 0.1 1015801
08:00+28ssw6775100 0.6 1016776
11:00+27sw6781100 5.4 1018664
14:00+27wsw7873100 5.9 1015734
17:00+27wsw5671100 0.1 1013570
20:00+28wsw5672100 0.1 1014589
26 october, tue
tue2623:00+28wsw5674100 0.2 1014649
02:00+28w677492 0.3 1013898
05:00+27wnw787568 0.0 1013772
08:00+27w77770 0.0 1013737
11:00+27w77782 0.0 1014785
14:00+27w77792 0.0 1012817
17:00+27wsw45740 0.0 1010613
20:00+28sw57772 0.3 1011525
27 october, wed
wed2723:00+29w7972100 0.2 1011495
02:00+28wnw9975100 0.2 1010750
05:00+27wnw88744 0.0 1010847
08:00+27wnw677517 0.0 10111012
11:00+27wnw5574100 0.0 1012892
14:00+27w557492 0.0 1011858
17:00+27w2372100 0.0 1010569
20:00+27ssw1271100 0.0 1011465